Location: *
(32.3758°S, 63.1185°E)
Time: 16:45:13
(UTC+00:00)

ATLAS 5 CENTAUR R/B - Pass Details

Date: 02 June 2023
Orbit: 474 x 1152 km, 63.3° (Epoch: 16 August)

Event Time Altitude Azimuth Distance (km) Brightness Sun altitude
Rises 13:43:20 0° 3° (N) 3,933 5.9 -11.2°
Reaches altitude 10° 13:46:22 10° 13° (NNE) 3,025 5.1 -11.8°
Maximum altitude 13:52:33 29° 70° (ENE) 1,969 3.7 -13.1°
Enters shadow 13:56:38 18° 115° (ESE) 2,494 4.0 -13.9°
